Tracking 19192 objects as of 18-Jun-2018
HD Live streaming from Space Station
objects crossing your sky now

FENGYUN 1C DEB

Track FENGYUN 1C DEB now!
10-day predictions


NORAD ID: 31185
Int'l Code: 1999-025BJP
Perigee: 863.8 km
Apogee: 925.6 km
Inclination: 99.0 °
Period: 102.7 minutes
Semi major axis: 7265 km
RCS: 0.0101 m2 (small)
Launch date: May 10, 1999
Source: People's Republic of China (PRC)
Launch site: Taiyaun Space Center, China (TSC)

Note: This is SATELLITE DEBRIS
aabbcc
Your satellite tracking list
Your tracking list is empty




NASA's NSSDC Master Catalog

Two Line Element Set (TLE):
1 31185U 99025BJP 18168.28731176  .00000041  00000-0  55089-4 0  9998
2 31185  98.9885 200.3072 0042524 159.6981 200.5887 14.01802105575152
Source of the keplerian elements: AFSPC